Weather History for KOFP - September, 2013

Change the Weather History Date:

Monday, September 2, 2013

  Actual Average Record
Temperature  
Mean Temperature 81 °F -  
Max Temperature 89 °F 84 °F 103 °F (1953)
Min Temperature 73 °F 62 °F 48 °F (1954)
Cooling Degree Days 16    
Growing Degree Days 31 (Base 50)    
Moisture  
Dew Point 71 °F    
Average Humidity 82    
Maximum Humidity 94    
Minimum Humidity 51    
Precipitation  
Precipitation 0.00 in - - ()
Sea Level Pressure  
Sea Level Pressure 29.82 in    
Wind  
Wind Speed 4 mph (SW)    
Max Wind Speed 9 mph    
Max Gust Speed -    
Visibility 9 miles    
Events      
Averages and records for this station are not official NWS values.
T = Trace of Precipitation, MM = Missing Value Source: NWS Daily Summary

Daily Weather History Graph

Daily Weather History Graph

Search for Another Location

Airport or City:

Trip Planner

Search our weather history database for the weather conditions in past years. The results will help you decide how hot, cold, wet, or windy it might be!

Date:

Astronomy

Sep. 02, 2013 Rise Set
Actual Time 6:40 AM EDT 7:37 PM EDT
Civil Twilight 6:14 AM EDT 8:03 PM EDT
Nautical Twilight 5:42 AM EDT 8:35 PM EDT
Astronomical Twilight 5:09 AM EDT 9:08 PM EDT
Moon 3:57 AM EDT (9/2) 5:48 PM EDT (9/2)
Length of Visible Light 13h 49m
Length of Day
12h 56m
Waning Crescent, 8% of the Moon is Illuminated
Sep 2
Waning Crescent
Sep 5
New
Sep 12
First Quarter
Sep 19
Full
Sep 26
Last Quarter

Hourly Weather History & Observations

Time (EDT) Temp. Heat Index Dew Point Humidity Pressure Visibility Wind Dir Wind Speed Gust Speed Precip Events Conditions
12:54 AM 73.0 °F - 71.1 °F 93% 29.83 in 10.0 mi WSW 4.6 mph - N/A   Overcast
1:54 AM 73.0 °F - 71.1 °F 93% 29.82 in 10.0 mi WSW 3.5 mph - N/A   Scattered Clouds
2:54 AM 73.0 °F - 71.1 °F 93% 29.81 in 10.0 mi South 3.5 mph - N/A   Mostly Cloudy
3:01 AM 73.4 °F - 71.6 °F 94% 29.81 in 10.0 mi South 3.5 mph - N/A   Mostly Cloudy
3:13 AM 73.4 °F - 71.6 °F 94% 29.81 in 10.0 mi Calm Calm - N/A   Mostly Cloudy
3:25 AM 73.4 °F - 71.6 °F 94% 29.81 in 10.0 mi Calm Calm - N/A   Mostly Cloudy
3:54 AM 73.0 °F - 71.1 °F 93% 29.81 in 10.0 mi Calm Calm - N/A   Overcast
4:54 AM 73.0 °F - 71.1 °F 93% 29.81 in 9.0 mi SW 5.8 mph - N/A   Overcast
5:23 AM 73.4 °F - 71.6 °F 94% 29.81 in 9.0 mi SSW 4.6 mph - N/A   Overcast
5:42 AM 73.4 °F - 71.6 °F 94% 29.81 in 8.0 mi South 3.5 mph - N/A   Overcast
5:54 AM 73.0 °F - 71.1 °F 93% 29.81 in 8.0 mi SSW 5.8 mph - N/A   Overcast
6:54 AM 73.0 °F - 71.1 °F 93% 29.81 in 7.0 mi SSW 3.5 mph - N/A   Overcast
7:54 AM 73.0 °F - 71.1 °F 93% 29.83 in 3.0 mi SW 5.8 mph - N/A   Overcast
8:08 AM 73.4 °F - 71.6 °F 94% 29.83 in 2.5 mi SSW 5.8 mph - N/A   Overcast
8:37 AM 73.4 °F - 71.6 °F 94% 29.84 in 4.0 mi SW 4.6 mph - N/A   Overcast
8:54 AM 73.9 °F - 71.1 °F 91% 29.83 in 6.0 mi SSW 4.6 mph - N/A   Overcast
9:13 AM 73.4 °F - 71.6 °F 94% 29.85 in 7.0 mi WSW 4.6 mph - N/A   Overcast
9:54 AM 75.9 °F - 71.1 °F 85% 29.85 in 10.0 mi WSW 5.8 mph - N/A   Overcast
10:54 AM 79.0 °F - 72.0 °F 79% 29.85 in 10.0 mi WSW 4.6 mph - N/A   Mostly Cloudy
11:05 AM 80.6 °F 84.6 °F 71.6 °F 74% 29.86 in 10.0 mi WNW 4.6 mph - N/A   Scattered Clouds
11:54 AM 82.0 °F 86.7 °F 72.0 °F 71% 29.85 in 10.0 mi West 6.9 mph - N/A   Mostly Cloudy
12:05 PM 82.4 °F 87.2 °F 71.6 °F 70% 29.85 in 10.0 mi Variable 3.5 mph - N/A   Partly Cloudy
12:54 PM 84.9 °F 90.1 °F 71.1 °F 63% 29.84 in 10.0 mi Variable 3.5 mph - N/A   Clear
1:54 PM 86.0 °F 90.1 °F 69.1 °F 57% 29.83 in 10.0 mi Calm Calm - N/A   Clear
2:54 PM 89.1 °F 94.1 °F 70.0 °F 53% 29.81 in 10.0 mi SW 9.2 mph - N/A   Mostly Cloudy
3:54 PM 89.1 °F 94.1 °F 70.0 °F 53% 29.79 in 10.0 mi West 8.1 mph - N/A   Partly Cloudy
4:54 PM 88.0 °F 91.4 °F 68.0 °F 51% 29.78 in 10.0 mi SW 6.9 mph - N/A   Clear
5:54 PM 87.1 °F 90.6 °F 68.0 °F 53% 29.78 in 10.0 mi SW 5.8 mph - N/A   Partly Cloudy
6:54 PM 84.9 °F 88.2 °F 68.0 °F 57% 29.78 in 10.0 mi SW 4.6 mph - N/A   Clear
7:54 PM 77.0 °F - 72.0 °F 84% 29.79 in 10.0 mi Calm Calm - N/A   Clear
8:54 PM 75.0 °F - 72.0 °F 90% 29.79 in 10.0 mi Calm Calm - N/A   Clear
9:54 PM 75.0 °F - 71.1 °F 87% 29.80 in 10.0 mi Calm Calm - N/A   Clear
10:54 PM 73.0 °F - 71.1 °F 93% 29.80 in 9.0 mi Calm Calm - N/A   Clear
11:54 PM 73.0 °F - 71.1 °F 93% 29.81 in 8.0 mi Calm Calm - N/A   Clear